This is the latest recevied weather packets stored in our database for station/object W4ZHA. If no packets are shown the sender has not sent any weather packets the latest 10 day(s).
| Time | Temp. | Humidity | Pressure | Rain* | Wind** | Luminosity | Snow |
|---|---|---|---|---|---|---|---|
| 1787668990 | 23.89° C | 66% | 1020 hPa | 0 mm | - | 100 W/m² | - |
| 1787668686 | 23.33° C | 67% | 1020 hPa | 0 mm | - | 94 W/m² | - |
| 1787668383 | 22.78° C | 65% | 1020 hPa | 0 mm | - | 77 W/m² | - |
| 1787668082 | 22.78° C | 64% | 1020.3 hPa | 0 mm | - | 74 W/m² | - |
| 1787667777 | 22.78° C | 64% | 1020.3 hPa | 0 mm | - | 86 W/m² | - |
| 1787667467 | 23.33° C | 67% | 1020.3 hPa | 0 mm | - | 97 W/m² | - |
| 1787667163 | 22.78° C | 64% | 1020.3 hPa | 0 mm | - | 104 W/m² | - |
| 1787666857 | 22.78° C | 64% | 1020 hPa | 0 mm | - | 122 W/m² | - |
| 1787666553 | 22.78° C | 65% | 1020 hPa | 0 mm | - | 117 W/m² | - |
| 1787666247 | 22.78° C | 65% | 1020.3 hPa | 0 mm | - | 124 W/m² | - |
| 1787665943 | 22.78° C | 65% | 1020.3 hPa | 0 mm | - | 112 W/m² | - |
| 1787665639 | 22.78° C | 65% | 1020.3 hPa | 0 mm | - | 109 W/m² | - |
| 1787665338 | 22.22° C | 65% | 1020.3 hPa | 0 mm | - | 103 W/m² | - |
| 1787665034 | 22.22° C | 65% | 1020.6 hPa | 0 mm | - | 97 W/m² | - |
| 1787664731 | 22.22° C | 65% | 1020.3 hPa | 0 mm | - | 92 W/m² | - |
| 1787664430 | 22.22° C | 65% | 1020.3 hPa | 0 mm | - | 86 W/m² | - |
| 1787664126 | 22.22° C | 65% | 1020.3 hPa | 0 mm | - | 80 W/m² | - |
| 1787663825 | 22.22° C | 65% | 1020.3 hPa | 0 mm | - | 79 W/m² | - |
| 1787663521 | 21.67° C | 66% | 1020 hPa | 0 mm | - | 77 W/m² | - |
| 1787663216 | 22.22° C | 65% | 1020.3 hPa | 0 mm | - | 75 W/m² | - |
| 1787662912 | 22.22° C | 65% | 1020 hPa | 0 mm | - | 74 W/m² | - |
| 1787662611 | 22.22° C | 65% | 1020 hPa | 0 mm | - | 70 W/m² | - |
| 1787662307 | 22.22° C | 65% | 1020 hPa | 0 mm | - | 66 W/m² | - |
| 1787662003 | 22.22° C | 64% | 1020 hPa | 0 mm | - | 69 W/m² | - |
| 1787661698 | 22.22° C | 64% | 1020 hPa | 0 mm | - | 72 W/m² | - |
* Rain latest hour (hover to see other rain measurements)
** Current wind speed in m/s (hover to see current wind gust speed)